Location: Burland Observatory
(39.4088°N, 105.4217°W)
Time: 02:44:14
(UTC-07:00)

SR - Pass Details

Date: 11 December 2019
Orbit: 574 x 882 km, 66.7° (Epoch: 27 January)

Event Time Altitude Azimuth Distance (km) Brightness Sun altitude
Rises 19:09:23 0° 321° (NW) 3,460 ? -28.4°
Reaches altitude 10° 19:12:12 10° 311° (NW) 2,494 ? -28.9°
Maximum altitude 19:17:06 30° 252° (WSW) 1,457 ? -29.8°
Drops below altitude 10° 19:21:45 10° 193° (SSW) 2,343 ? -30.7°
Sets 19:24:20 0° 183° (S) 3,216 ? -31.2°
